Flag for Germany Weather past 2 weeks in Leinfelden-Echterdingen, Baden-Württemberg, Germany

Now
52 °F

Partly sunny.


Feels Like: 52 °F
Forecast: 40 / 59 °F
Wind: 2 mph from Southeast

Location: Stuttgart-Echterdingen

Current Time: Oct 25, 2014 at 12:39:37 PM

Latest Report: Oct 25, 2014 at 12:20 PM


Visibility: N/A

Pressure: 30.15 "Hg

Humidity: 82%

Dew point: 46 °F

Location of Leinfelden-EchterdingenLocation

Historic Weather in Leinfelden-Echterdingen — Graph

°F

Leinfelden-Echterdingen temperature yesterday

Maximum temperature yesterday: 57 °F (at 2:50 PM)
Minimum temperature yesterday: 37 °F (at 4:50 AM)
Average temperature yesterday: 45 °F

Past Weeks' High & Low Weather Summary

 TemperatureHumidityPressure
High75 °F (Oct 19, 3:20 PM)100% (Oct 11, 1:20 AM)30.27 "Hg (Oct 11, 1:20 AM)
Low37 °F (Oct 24, 4:50 AM)50% (Oct 19, 3:50 PM)29.65 "Hg (Oct 21, 6:20 PM)
Average55 °F85%30.00 "Hg
* Reported Oct 10 11:20 AM — Oct 25 11:20 AM, Leinfelden-Echterdingen, Weather by CustomWeather, © 2014

Note: Actual official high and low records may vary slightly from our data, if they occured in-between our weather recording intervals... More about our weather records

Advertising

Leinfelden-Echterdingen weather history for previous 24 hours

 ConditionsComfort  
Time TempWeatherWind HumidityBarometerVisibility
11:20 AM
Oct 25
50 °FPartly sunny.2 mph82%30.15 "HgN/A
10:50 AM50 °FPartly sunny.3 mph82%30.15 "HgN/A
10:20 AM48 °FBroken clouds.3 mph87%30.15 "HgN/A
9:50 AM46 °FSunny.2 mph93%30.12 "Hg10 mi
9:20 AM45 °FSunny.3 mph100%30.12 "Hg10 mi
8:50 AM45 °FClear.1 mph93%30.12 "Hg10 mi
8:20 AM45 °FClear.2 mph93%30.12 "Hg10 mi
7:50 AM45 °FClear.2 mph93%30.12 "Hg10 mi
7:20 AM43 °FClear.2 mph100%30.09 "Hg10 mi
6:50 AM45 °FPartly cloudy.1 mph93%30.09 "HgN/A
6:20 AM43 °FLight rain. Partly cloudy.2 mph100%30.09 "HgN/A
5:50 AM43 °FLight rain. Partly cloudy.No wind100%30.09 "HgN/A
5:20 AM45 °FLight rain. Clear.1 mph93%30.09 "HgN/A
4:50 AM43 °FLight rain. Clear.No wind93%30.09 "HgN/A
4:20 AM45 °FClear.1 mph87%30.09 "Hg10 mi
3:50 AM43 °FClear.2 mph93%30.09 "Hg10 mi
3:20 AM43 °FClear.1 mph93%30.09 "Hg10 mi
2:50 AM43 °FClear.1 mph93%30.09 "Hg10 mi
2:20 AM43 °FClear.1 mph93%30.12 "Hg10 mi
1:50 AM43 °FClear.3 mph93%30.12 "Hg10 mi
1:20 AM43 °FClear.1 mph87%30.12 "Hg10 mi
12:50 AM43 °FClear.1 mph87%30.12 "Hg10 mi
12:20 AM43 °FClear.1 mph93%30.12 "Hg10 mi
11:50 PM
Oct 24
43 °FClear.1 mph87%30.12 "Hg10 mi
11:20 PM43 °FClear.1 mph93%30.12 "Hg10 mi
10:50 PM45 °FClear.2 mph87%30.12 "Hg10 mi
10:20 PM45 °FClear.1 mph87%30.12 "Hg10 mi
9:50 PM46 °FClear.1 mph82%30.12 "Hg10 mi
9:20 PM46 °FClear.2 mph87%30.12 "Hg10 mi
8:50 PM46 °FClear.1 mph82%30.12 "Hg10 mi
8:20 PM46 °FClear.1 mph82%30.12 "Hg10 mi
7:50 PM46 °FClear.1 mph82%30.12 "Hg10 mi
7:20 PM48 °FClear.2 mph76%30.12 "Hg10 mi
6:50 PM50 °FSunny.2 mph71%30.12 "Hg10 mi
6:20 PM50 °FSunny.3 mph76%30.12 "Hg10 mi
5:50 PM52 °FSunny.6 mph72%30.12 "Hg10 mi
5:20 PM54 °FPassing clouds.6 mph67%30.12 "HgN/A
4:50 PM55 °FPassing clouds.6 mph63%30.12 "HgN/A
4:20 PM57 °FPassing clouds.5 mph59%30.12 "HgN/A
3:50 PM57 °FPassing clouds.3 mph59%30.12 "HgN/A
3:20 PM57 °FPassing clouds.5 mph59%30.15 "HgN/A
2:50 PM57 °FPassing clouds.3 mph55%30.15 "HgN/A
2:20 PM55 °FPassing clouds.2 mph63%30.15 "HgN/A
1:50 PM55 °FPassing clouds.3 mph67%30.15 "HgN/A
1:20 PM54 °FPassing clouds.3 mph72%30.18 "HgN/A
12:50 PM52 °FPassing clouds.5 mph82%30.18 "HgN/A
12:20 PM50 °FSunny.2 mph82%30.21 "Hg10 mi
Weather by CustomWeather, © 2014

See weather overviewHow to use our weather pages